Weather Roundup
Issued by NWS Springfield, MO

Home | Current Version | Previous Version | Text Only | Print | Product List | Glossary On
Versions: 1 2 3 4 5 6 7 8 9 10 11 12 13 14 15 16 17 18 19 20 21 22 23 24 25 26 27 28 29 30 31 32 33 34 35 36 37 38 39 40 41 42 43 44 45 46 47 48 49 50
000
NZUS99 KSGF 291407
HRRSGF

HOURLY WEATHER
NATIONAL WEATHER SERVICE SPRINGFIELD MO
900 AM CDT FRI JUL 29 2016

......SGF CWA......

CITY           SKY/WX    TMP DP  RH WIND       PRES   REMARKS
SPRINGFIELD    MOSUNNY   78  72  81 SE3       29.99S
JOPLIN         PTSUNNY   75  68  78 VRB5      30.00S
WEST PLAINS    SUNNY     79  70  74 CALM      30.02S
ROLLA          MOSUNNY   73  68  84 SE5       29.98F
OSAGE BEACH    CLOUDY    73  70  90 E3        30.00S
BRANSON        MOSUNNY   79  73  83 CALM      30.02R

......SURROUNDING SGF CWA......

CITY           SKY/WX    TMP DP  RH WIND       PRES   REMARKS
CHANUTE        CLOUDY    71  68  90 NW7       30.02R
PARSONS        CLOUDY    71  68  90 NW6       30.03R
COFFEYVILLE    PTSUNNY   71  69  93 N3        30.00S
EMPORIA        CLOUDY    69  68  96 W5        30.05R
GROVE OK       CLOUDY    77  73  88 CALM      29.99S
ROGERS AR      PTSUNNY   79  75  87 CALM      30.01F
SILOAM SPRINGS MOSUNNY   79  66  65 SW5       30.03R
HARRISON AR    PTSUNNY   79  73  82 W3        30.02R
NEAR YELLVILLE CLOUDY    75  70  83 CALM      29.96S

......KANSAS AND MISSOURI......

CITY           SKY/WX    TMP DP  RH WIND       PRES   REMARKS
KANSAS CTY INT PTSUNNY   73  63  70 E6        30.03R
DOWNTOWN KC    CLOUDY    75  64  68 NE6       30.01R
COLUMBIA       PTSUNNY   72  69  90 CALM      29.99F
SEDALIA        PTSUNNY   75  69  81 NE6       30.02R
ST JOSEPH      MOSUNNY   73  66  78 N8        30.03S
ST LOUIS       PTSUNNY   79  67  66 NW6       29.97R
SPIRIT OF STL  CLOUDY    76  70  82 NW5       29.96R
KIRKSVILLE     PTSUNNY   70  64  81 N7        30.01S
WICHITA        CLOUDY    70  67  90 N6        30.06F
TOPEKA         CLOUDY    73  68  84 NE7       30.03R
OLATHE         CLOUDY    72  66  81 NE6       30.02R

......TENNESSEE......

CITY           SKY/WX    TMP DP  RH WIND       PRES   REMARKS
MEMPHIS        CLOUDY    79  72  79 VRB7G20   30.00R
NASHVILLE      CLOUDY    80  73  79 S8        29.99R

......ARKANSAS.......

CITY           SKY/WX    TMP DP  RH WIND       PRES   REMARKS
FAYETTEVILLE   MOSUNNY   78  75  90 SW8       30.01S
FT SMITH       CLOUDY    83  73  72 W10       29.98R
LITTLE ROCK    PTSUNNY   80  73  79 SW10      30.00S

......OKLAHOMA.......

CITY           SKY/WX    TMP DP  RH WIND       PRES   REMARKS
TULSA          CLOUDY    77  67  71 W5        29.97F
PONCA CITY     LGT RAIN  67  64  90 CALM      30.04F
MCALESTER      SUNNY     80  73  79 SW7       30.01S
OKLAHOMA CITY  TSTM      69  65  86 NE16G26   30.08F FOG

......IOWA............

CITY           SKY/WX    TMP DP  RH WIND       PRES   REMARKS
DES MOINES     CLOUDY    68  61  78 N7        30.02R
QUAD CITIES    CLOUDY    75  68  78 W3        29.94R

......ILLINOIS........

CITY           SKY/WX    TMP DP  RH WIND       PRES   REMARKS
QUINCY         CLOUDY    70  70 100 W3        29.97S
CHICAGO        PTSUNNY   77  69  76 NE7       29.93S



USA.gov is the U.S. government's official web portal to all federal, state and local government web resources and services.